Time,TemperatureF,DewpointF,PressureIn,WindDirection,WindDirectionDegrees,WindSpeedMPH,WindSpeedGustMPH,Humidity,HourlyPrecipIn,Conditions,Clouds,dailyrainin,SoftwareType,DateUTC
2013-06-27 00:00:00,83.1,70.6,29.95,ESE,112,0.0,0.0,66,0.00,,---,0.02,VWS V13.01,2013-06-27 04:00:00,
2013-06-27 00:01:00,83.1,70.6,29.95,ESE,112,0.0,0.0,66,0.00,,---,0.02,VWS V13.01,2013-06-27 04:01:00,
2013-06-27 00:02:00,83.1,70.6,29.95,SE,135,0.0,0.0,66,0.00,,---,0.02,VWS V13.01,2013-06-27 04:02:00,
2013-06-27 00:07:00,83.1,70.6,29.95,SSE,158,0.0,0.0,66,0.00,,---,0.02,VWS V13.01,2013-06-27 04:07:00,
2013-06-27 00:12:00,83.1,70.6,29.95,ESE,112,0.0,0.0,66,0.00,,---,0.02,VWS V13.01,2013-06-27 04:12:00,
2013-06-27 00:17:00,82.9,70.4,29.94,SE,135,0.0,0.0,66,0.00,,---,0.02,VWS V13.01,2013-06-27 04:17:00,
2013-06-27 00:22:00,82.8,70.2,29.94,SE,135,0.0,0.0,66,0.00,,---,0.02,VWS V13.01,2013-06-27 04:22:00,
2013-06-27 00:27:00,82.8,70.2,29.94,SE,135,0.0,0.0,66,0.00,,---,0.02,VWS V13.01,2013-06-27 04:27:00,
2013-06-27 00:32:00,82.8,70.2,29.94,SE,135,0.0,0.0,66,0.00,,---,0.02,VWS V13.01,2013-06-27 04:32:00,
2013-06-27 00:37:00,82.8,70.2,29.94,SE,135,0.0,0.0,66,0.00,,---,0.02,VWS V13.01,2013-06-27 04:37:00,
2013-06-27 00:42:00,82.8,70.2,29.94,SE,135,0.0,0.0,66,0.00,,---,0.02,VWS V13.01,2013-06-27 04:42:00,
2013-06-27 00:47:00,82.6,70.5,29.94,SE,135,0.0,0.0,67,0.00,,---,0.02,VWS V13.01,2013-06-27 04:47:00,
2013-06-27 00:52:00,82.6,70.5,29.94,SE,135,0.0,0.0,67,0.00,,---,0.02,VWS V13.01,2013-06-27 04:52:00,
2013-06-27 00:57:00,82.6,70.5,29.94,SE,135,0.0,0.0,67,0.00,,---,0.02,VWS V13.01,2013-06-27 04:57:00,
2013-06-27 01:02:00,82.6,70.5,29.94,SE,135,0.0,0.0,67,0.00,,---,0.02,VWS V13.01,2013-06-27 05:02:00,
2013-06-27 01:07:00,82.6,70.5,29.94,SSE,158,0.0,0.0,67,0.00,,---,0.02,VWS V13.01,2013-06-27 05:07:00,
2013-06-27 01:12:00,82.6,70.5,29.93,SSE,158,0.0,0.0,67,0.00,,---,0.02,VWS V13.01,2013-06-27 05:12:00,
2013-06-27 01:17:00,82.6,70.5,29.93,SSE,158,0.0,0.0,67,0.00,,---,0.02,VWS V13.01,2013-06-27 05:17:00,
2013-06-27 01:22:00,82.6,70.5,29.93,SSE,158,0.0,0.0,67,0.00,,---,0.02,VWS V13.01,2013-06-27 05:22:00,
2013-06-27 01:27:00,82.4,70.3,29.93,SSE,158,0.0,0.0,67,0.00,,---,0.02,VWS V13.01,2013-06-27 05:27:00,
2013-06-27 01:32:00,82.4,70.3,29.93,SSE,158,0.0,0.0,67,0.00,,---,0.02,VWS V13.01,2013-06-27 05:32:00,
2013-06-27 01:37:00,82.2,70.2,29.93,SSE,158,0.0,0.0,67,0.00,,---,0.02,VWS V13.01,2013-06-27 05:37:00,
2013-06-27 01:41:00,82.2,70.2,29.92,SE,135,0.0,0.0,67,0.00,,---,0.02,VWS V13.01,2013-06-27 05:41:00,
2013-06-27 01:46:00,82.0,70.0,29.91,SE,135,0.0,0.0,67,0.00,,---,0.02,VWS V13.01,2013-06-27 05:46:00,
2013-06-27 01:51:00,82.0,70.0,29.91,ESE,112,0.0,0.0,67,0.00,,---,0.02,VWS V13.01,2013-06-27 05:51:00,
2013-06-27 01:56:00,82.0,70.0,29.92,South,180,0.0,0.0,67,0.00,,---,0.02,VWS V13.01,2013-06-27 05:56:00,
2013-06-27 02:01:00,81.9,69.8,29.92,SSE,158,0.0,0.0,67,0.00,,---,0.02,VWS V13.01,2013-06-27 06:01:00,
2013-06-27 02:06:00,81.9,69.8,29.91,SSE,158,0.0,0.0,67,0.00,,---,0.02,VWS V13.01,2013-06-27 06:06:00,
2013-06-27 02:11:00,81.9,69.8,29.91,SSE,158,0.0,0.0,67,0.00,,---,0.02,VWS V13.01,2013-06-27 06:11:00,
2013-06-27 02:16:00,81.7,70.1,29.91,SSE,158,0.0,0.0,68,0.00,,---,0.02,VWS V13.01,2013-06-27 06:16:00,
2013-06-27 02:21:00,81.7,69.7,29.91,SE,135,0.0,0.0,67,0.00,,---,0.02,VWS V13.01,2013-06-27 06:21:00,
2013-06-27 02:26:00,81.7,70.1,29.91,SE,135,0.0,0.0,68,0.00,,---,0.02,VWS V13.01,2013-06-27 06:26:00,
2013-06-27 02:31:00,81.7,70.1,29.91,SE,135,0.0,0.0,68,0.00,,---,0.02,VWS V13.01,2013-06-27 06:31:00,
2013-06-27 02:36:00,81.7,70.1,29.91,SE,135,0.0,0.0,68,0.00,,---,0.02,VWS V13.01,2013-06-27 06:36:00,
2013-06-27 02:41:00,81.5,69.9,29.91,SE,135,0.0,0.0,68,0.00,,---,0.02,VWS V13.01,2013-06-27 06:41:00,
2013-06-27 02:46:00,81.7,70.1,29.92,SE,135,0.0,0.0,68,0.00,,---,0.02,VWS V13.01,2013-06-27 06:46:00,
2013-06-27 02:51:00,81.3,69.8,29.91,SE,135,0.0,0.0,68,0.00,,---,0.02,VWS V13.01,2013-06-27 06:51:00,
2013-06-27 02:56:00,81.5,69.9,29.92,SE,135,0.0,0.0,68,0.00,,---,0.02,VWS V13.01,2013-06-27 06:56:00,
2013-06-27 03:01:00,81.3,69.8,29.92,SE,135,0.0,0.0,68,0.00,,---,0.02,VWS V13.01,2013-06-27 07:01:00,
2013-06-27 03:06:00,81.3,70.2,29.92,SE,135,0.0,0.0,69,0.00,,---,0.02,VWS V13.01,2013-06-27 07:06:00,
2013-06-27 03:11:00,81.3,70.2,29.92,SE,135,0.0,0.0,69,0.00,,---,0.02,VWS V13.01,2013-06-27 07:11:00,
2013-06-27 03:16:00,81.1,70.0,29.91,SE,135,0.0,0.0,69,0.00,,---,0.02,VWS V13.01,2013-06-27 07:16:00,
2013-06-27 03:21:00,81.0,70.3,29.92,SE,135,0.0,0.0,70,0.00,,---,0.02,VWS V13.01,2013-06-27 07:21:00,
2013-06-27 03:26:00,81.0,70.3,29.92,SE,135,0.0,0.0,70,0.00,,---,0.02,VWS V13.01,2013-06-27 07:26:00,
2013-06-27 03:31:00,81.0,70.3,29.92,SE,135,0.0,0.0,70,0.00,,---,0.02,VWS V13.01,2013-06-27 07:31:00,
2013-06-27 03:36:00,81.1,70.4,29.91,SE,135,0.0,0.0,70,0.00,,---,0.02,VWS V13.01,2013-06-27 07:36:00,
2013-06-27 03:41:00,81.1,70.4,29.91,SE,135,0.0,0.0,70,0.00,,---,0.02,VWS V13.01,2013-06-27 07:41:00,
2013-06-27 03:46:00,81.0,70.3,29.91,SE,135,0.0,0.0,70,0.00,,---,0.02,VWS V13.01,2013-06-27 07:46:00,
2013-06-27 03:51:00,81.0,70.3,29.91,SE,135,0.0,0.0,70,0.00,,---,0.02,VWS V13.01,2013-06-27 07:51:00,
2013-06-27 03:56:00,80.8,70.5,29.91,SE,135,0.0,0.0,71,0.00,,---,0.02,VWS V13.01,2013-06-27 07:56:00,
2013-06-27 04:01:00,80.6,70.3,29.91,SE,135,0.0,0.0,71,0.00,,---,0.02,VWS V13.01,2013-06-27 08:01:00,
2013-06-27 04:06:00,80.6,70.3,29.91,SE,135,0.0,0.0,71,0.00,,---,0.02,VWS V13.01,2013-06-27 08:06:00,
2013-06-27 04:11:00,80.4,70.2,29.91,SE,135,0.0,0.0,71,0.00,,---,0.02,VWS V13.01,2013-06-27 08:11:00,
2013-06-27 04:16:00,80.2,70.0,29.91,SE,135,0.0,0.0,71,0.00,,---,0.02,VWS V13.01,2013-06-27 08:16:00,
2013-06-27 04:21:00,80.4,70.2,29.91,SE,135,0.0,0.0,71,0.00,,---,0.02,VWS V13.01,2013-06-27 08:21:00,
2013-06-27 04:26:00,80.4,70.2,29.91,SE,135,0.0,0.0,71,0.00,,---,0.02,VWS V13.01,2013-06-27 08:26:00,
2013-06-27 04:31:00,80.2,70.0,29.91,SE,135,0.0,0.0,71,0.00,,---,0.02,VWS V13.01,2013-06-27 08:31:00,
2013-06-27 04:36:00,80.2,70.0,29.90,SE,135,0.0,0.0,71,0.00,,---,0.02,VWS V13.01,2013-06-27 08:36:00,
2013-06-27 04:41:00,80.1,69.8,29.90,SE,135,0.0,0.0,71,0.00,,---,0.02,VWS V13.01,2013-06-27 08:41:00,
2013-06-27 04:46:00,79.9,69.6,29.90,SE,135,0.0,0.0,71,0.00,,---,0.02,VWS V13.01,2013-06-27 08:46:00,
2013-06-27 04:51:00,79.9,70.1,29.90,SE,135,0.0,0.0,72,0.00,,---,0.02,VWS V13.01,2013-06-27 08:51:00,
2013-06-27 04:56:00,79.9,70.5,29.90,SE,135,0.0,0.0,73,0.00,,---,0.02,VWS V13.01,2013-06-27 08:56:00,
2013-06-27 05:01:00,79.7,70.3,29.90,SE,135,0.0,0.0,73,0.00,,---,0.02,VWS V13.01,2013-06-27 09:01:00,
2013-06-27 05:06:00,79.7,70.3,29.91,SE,135,0.0,0.0,73,0.00,,---,0.02,VWS V13.01,2013-06-27 09:06:00,
2013-06-27 05:11:00,79.7,70.3,29.91,SE,135,0.0,0.0,73,0.00,,---,0.02,VWS V13.01,2013-06-27 09:11:00,
2013-06-27 05:16:00,79.7,70.3,29.91,SE,135,0.0,0.0,73,0.00,,---,0.02,VWS V13.01,2013-06-27 09:16:00,
2013-06-27 05:21:00,79.7,70.3,29.91,SE,135,0.0,0.0,73,0.00,,---,0.02,VWS V13.01,2013-06-27 09:21:00,
2013-06-27 05:26:00,79.7,70.3,29.91,SE,135,0.0,0.0,73,0.00,,---,0.02,VWS V13.01,2013-06-27 09:26:00,
2013-06-27 05:31:00,79.5,70.5,29.91,SE,135,0.0,0.0,74,0.00,,---,0.02,VWS V13.01,2013-06-27 09:31:00,
2013-06-27 05:36:00,79.5,70.9,29.91,SE,135,0.0,0.0,75,0.00,,---,0.02,VWS V13.01,2013-06-27 09:36:00,
2013-06-27 05:41:00,79.5,70.9,29.92,SE,135,0.0,0.0,75,0.00,,---,0.02,VWS V13.01,2013-06-27 09:41:00,
2013-06-27 05:46:00,79.5,70.9,29.92,SE,135,0.0,0.0,75,0.00,,---,0.02,VWS V13.01,2013-06-27 09:46:00,
2013-06-27 05:51:00,79.3,70.7,29.92,SE,135,0.0,0.0,75,0.00,,---,0.02,VWS V13.01,2013-06-27 09:51:00,
2013-06-27 05:56:00,79.5,70.9,29.92,SE,135,0.0,0.0,75,0.00,,---,0.02,VWS V13.01,2013-06-27 09:56:00,
2013-06-27 06:01:00,79.5,70.9,29.92,SE,135,0.0,0.0,75,0.00,,---,0.02,VWS V13.01,2013-06-27 10:01:00,
2013-06-27 06:06:00,79.2,70.6,29.92,SE,135,0.0,0.0,75,0.00,,---,0.02,VWS V13.01,2013-06-27 10:06:00,
2013-06-27 06:11:00,79.5,70.9,29.93,SE,135,0.0,0.0,75,0.00,,---,0.02,VWS V13.01,2013-06-27 10:11:00,
2013-06-27 06:16:00,79.3,70.7,29.93,SE,135,0.0,0.0,75,0.00,,---,0.02,VWS V13.01,2013-06-27 10:16:00,
2013-06-27 06:21:00,79.3,70.7,29.93,SE,135,0.0,0.0,75,0.00,,---,0.02,VWS V13.01,2013-06-27 10:21:00,
2013-06-27 06:26:00,79.3,71.1,29.93,SE,135,0.0,0.0,76,0.00,,---,0.02,VWS V13.01,2013-06-27 10:26:00,
2013-06-27 06:31:00,79.3,71.1,29.92,SE,135,0.0,0.0,76,0.00,,---,0.02,VWS V13.01,2013-06-27 10:31:00,
2013-06-27 06:36:00,79.3,71.1,29.92,SE,135,0.0,0.0,76,0.00,,---,0.02,VWS V13.01,2013-06-27 10:36:00,
2013-06-27 06:41:00,79.3,71.1,29.93,SE,135,0.0,0.0,76,0.00,,---,0.02,VWS V13.01,2013-06-27 10:41:00,
2013-06-27 06:46:00,79.5,71.7,29.92,SE,135,0.0,0.0,77,0.00,,---,0.02,VWS V13.01,2013-06-27 10:46:00,
2013-06-27 06:51:00,79.5,71.7,29.93,SE,135,0.0,0.0,77,0.00,,---,0.02,VWS V13.01,2013-06-27 10:51:00,
2013-06-27 06:56:00,79.5,71.7,29.93,SE,135,0.0,0.0,77,0.00,,---,0.02,VWS V13.01,2013-06-27 10:56:00,
2013-06-27 07:01:00,79.5,71.7,29.93,SE,135,0.0,0.0,77,0.00,,---,0.00,VWS V13.01,2013-06-27 11:01:00,
2013-06-27 07:06:00,79.7,71.5,29.93,SE,135,0.0,0.0,76,0.00,,---,0.00,VWS V13.01,2013-06-27 11:06:00,
2013-06-27 07:11:00,79.9,71.6,29.93,SE,135,0.0,0.0,76,0.00,,---,0.00,VWS V13.01,2013-06-27 11:11:00,
2013-06-27 07:16:00,80.2,72.4,29.93,SE,135,0.0,0.0,77,0.00,,---,0.00,VWS V13.01,2013-06-27 11:16:00,
2013-06-27 07:21:00,81.0,73.5,29.93,SE,135,0.0,0.0,78,0.00,,---,0.00,VWS V13.01,2013-06-27 11:21:00,
2013-06-27 07:26:00,82.6,75.0,29.93,SE,135,0.0,0.0,78,0.00,,---,0.00,VWS V13.01,2013-06-27 11:26:00,
2013-06-27 07:31:00,85.1,77.5,29.93,SE,135,0.0,0.0,78,0.00,,---,0.00,VWS V13.01,2013-06-27 11:31:00,
2013-06-27 07:36:00,86.9,76.8,29.93,SE,135,0.0,0.0,72,0.00,,---,0.00,VWS V13.01,2013-06-27 11:36:00,
2013-06-27 07:41:00,88.5,76.2,29.93,SE,135,0.0,0.0,67,0.00,,---,0.00,VWS V13.01,2013-06-27 11:41:00,
2013-06-27 07:46:00,90.3,75.5,29.93,SE,135,0.0,0.0,62,0.00,,---,0.00,VWS V13.01,2013-06-27 11:46:00,
2013-06-27 07:51:00,91.8,75.4,29.94,SE,135,0.0,0.0,59,0.00,,---,0.00,VWS V13.01,2013-06-27 11:51:00,
2013-06-27 07:56:00,93.6,74.4,29.94,SE,135,0.0,0.0,54,0.00,,---,0.00,VWS V13.01,2013-06-27 11:56:00,
2013-06-27 08:01:00,93.9,73.1,29.94,SE,135,0.0,0.0,51,0.00,,---,0.00,VWS V13.01,2013-06-27 12:01:00,
2013-06-27 08:06:00,93.9,72.5,29.95,SE,135,0.0,0.0,50,0.00,,---,0.00,VWS V13.01,2013-06-27 12:06:00,
2013-06-27 08:11:00,94.5,71.8,29.95,South,180,0.0,0.0,48,0.00,,---,0.00,VWS V13.01,2013-06-27 12:11:00,
2013-06-27 08:16:00,94.1,70.2,29.95,SSE,158,0.0,0.0,46,0.00,,---,0.00,VWS V13.01,2013-06-27 12:16:00,
2013-06-27 08:21:00,93.4,70.2,29.95,SE,135,0.0,0.0,47,0.00,,---,0.00,VWS V13.01,2013-06-27 12:21:00,
2013-06-27 08:26:00,91.8,69.3,29.95,SSE,158,0.0,0.0,48,0.00,,---,0.00,VWS V13.01,2013-06-27 12:26:00,
2013-06-27 08:31:00,90.5,68.8,29.96,SSE,158,0.0,0.0,49,0.00,,---,0.00,VWS V13.01,2013-06-27 12:31:00,
2013-06-27 08:36:00,90.0,69.4,29.95,South,180,0.0,0.0,51,0.00,,---,0.00,VWS V13.01,2013-06-27 12:36:00,
2013-06-27 08:41:00,89.2,69.3,29.95,South,180,0.0,0.0,52,0.00,,---,0.00,VWS V13.01,2013-06-27 12:41:00,
2013-06-27 08:46:00,88.9,69.6,29.96,South,180,0.0,0.0,53,0.00,,---,0.00,VWS V13.01,2013-06-27 12:46:00,
2013-06-27 08:51:00,88.5,69.8,29.96,SSE,158,0.0,0.0,54,0.00,,---,0.00,VWS V13.01,2013-06-27 12:51:00,
2013-06-27 08:56:00,88.2,70.0,29.96,South,180,0.0,0.0,55,0.00,,---,0.00,VWS V13.01,2013-06-27 12:56:00,
2013-06-27 09:01:00,88.0,69.8,29.96,South,180,0.0,0.0,55,0.00,,---,0.00,VWS V13.01,2013-06-27 13:01:00,
2013-06-27 09:06:00,88.0,70.3,29.96,South,180,0.0,0.0,56,0.00,,---,0.00,VWS V13.01,2013-06-27 13:06:00,
2013-06-27 09:11:00,88.0,70.3,29.96,ESE,112,0.0,0.0,56,0.00,,---,0.00,VWS V13.01,2013-06-27 13:11:00,
2013-06-27 09:16:00,88.2,70.5,29.96,ESE,112,0.0,0.0,56,0.00,,---,0.00,VWS V13.01,2013-06-27 13:16:00,
2013-06-27 09:21:00,88.2,70.5,29.96,ESE,112,0.0,0.0,56,0.00,,---,0.00,VWS V13.01,2013-06-27 13:21:00,
2013-06-27 09:26:00,88.3,70.1,29.96,ESE,112,0.0,0.0,55,0.00,,---,0.00,VWS V13.01,2013-06-27 13:26:00,
2013-06-27 09:31:00,88.7,69.9,29.96,ESE,112,0.0,0.0,54,0.00,,---,0.00,VWS V13.01,2013-06-27 13:31:00,
2013-06-27 09:36:00,89.1,69.7,29.95,ESE,112,0.0,0.0,53,0.00,,---,0.00,VWS V13.01,2013-06-27 13:36:00,
2013-06-27 09:41:00,89.4,70.1,29.95,ESE,112,0.0,0.0,53,0.00,,---,0.00,VWS V13.01,2013-06-27 13:41:00,
2013-06-27 09:46:00,89.4,69.5,29.95,SE,135,0.0,0.0,52,0.00,,---,0.00,VWS V13.01,2013-06-27 13:46:00,
2013-06-27 09:51:00,89.6,69.1,29.95,SE,135,0.0,0.0,51,0.00,,---,0.00,VWS V13.01,2013-06-27 13:51:00,
2013-06-27 09:56:00,90.0,69.4,29.95,SE,135,0.0,0.0,51,0.00,,---,0.00,VWS V13.01,2013-06-27 13:56:00,
2013-06-27 10:01:00,90.3,69.8,29.95,SE,135,0.0,0.0,51,0.00,,---,0.00,VWS V13.01,2013-06-27 14:01:00,
2013-06-27 10:06:00,90.9,70.2,29.95,SE,135,0.0,0.0,51,0.00,,---,0.00,VWS V13.01,2013-06-27 14:06:00,
2013-06-27 10:11:00,91.8,70.5,29.96,SSE,158,0.0,0.0,50,0.00,,---,0.00,VWS V13.01,2013-06-27 14:11:00,
2013-06-27 10:16:00,92.5,69.9,29.96,SE,135,0.0,0.0,48,0.00,,---,0.00,VWS V13.01,2013-06-27 14:16:00,
2013-06-27 10:21:00,92.3,69.2,29.95,SSW,202,0.0,0.0,47,0.00,,---,0.00,VWS V13.01,2013-06-27 14:21:00,
2013-06-27 10:26:00,92.8,69.7,29.95,ESE,112,0.0,0.0,47,0.00,,---,0.00,VWS V13.01,2013-06-27 14:26:00,
2013-06-27 10:31:00,93.4,69.5,29.95,ESE,112,0.0,0.0,46,0.00,,---,0.00,VWS V13.01,2013-06-27 14:31:00,
2013-06-27 10:36:00,92.7,68.2,29.96,SW,225,0.0,0.0,45,0.00,,---,0.00,VWS V13.01,2013-06-27 14:36:00,
2013-06-27 10:41:00,92.1,67.7,29.96,SW,225,0.0,0.0,45,0.00,,---,0.00,VWS V13.01,2013-06-27 14:41:00,
2013-06-27 10:46:00,91.0,67.4,29.95,SE,135,0.0,0.0,46,0.00,,---,0.00,VWS V13.01,2013-06-27 14:46:00,
2013-06-27 10:51:00,90.3,66.8,29.95,SW,225,0.0,0.0,46,0.00,,---,0.00,VWS V13.01,2013-06-27 14:51:00,
2013-06-27 10:56:00,89.2,66.4,29.95,SSE,158,0.0,2.2,47,0.00,,---,0.00,VWS V13.01,2013-06-27 14:56:00,
2013-06-27 11:01:00,88.7,65.9,29.96,SW,225,0.0,0.0,47,0.00,,---,0.00,VWS V13.01,2013-06-27 15:01:00,
2013-06-27 11:06:00,88.0,67.0,29.96,South,180,0.0,0.0,50,0.00,,---,0.00,VWS V13.01,2013-06-27 15:06:00,
2013-06-27 11:11:00,87.4,67.1,29.96,South,180,0.0,0.0,51,0.00,,---,0.00,VWS V13.01,2013-06-27 15:11:00,
2013-06-27 11:16:00,87.1,67.9,29.96,SW,225,0.0,0.0,53,0.00,,---,0.00,VWS V13.01,2013-06-27 15:16:00,
2013-06-27 11:21:00,86.9,68.8,29.96,SW,225,0.0,0.0,55,0.00,,---,0.00,VWS V13.01,2013-06-27 15:21:00,
2013-06-27 11:26:00,86.7,69.2,29.96,SW,225,0.0,0.0,56,0.00,,---,0.00,VWS V13.01,2013-06-27 15:26:00,
2013-06-27 11:31:00,86.4,68.8,29.96,SW,225,0.0,0.0,56,0.00,,---,0.00,VWS V13.01,2013-06-27 15:31:00,
2013-06-27 11:36:00,86.2,68.7,29.96,West,270,0.0,0.0,56,0.00,,---,0.00,VWS V13.01,2013-06-27 15:36:00,
2013-06-27 11:41:00,85.8,68.3,29.96,WNW,292,0.0,0.0,56,0.00,,---,0.00,VWS V13.01,2013-06-27 15:41:00,
2013-06-27 11:46:00,85.5,67.5,29.96,West,270,0.0,0.0,55,0.00,,---,0.00,VWS V13.01,2013-06-27 15:46:00,
2013-06-27 11:51:00,84.7,67.3,29.97,WNW,292,0.0,0.0,56,0.00,,---,0.00,VWS V13.01,2013-06-27 15:51:00,
2013-06-27 11:56:00,84.0,66.7,29.97,North,0,0.0,0.0,56,0.00,,---,0.00,VWS V13.01,2013-06-27 15:56:00,
2013-06-27 12:01:00,83.3,66.5,29.97,ENE,68,0.0,0.0,57,0.00,,---,0.00,VWS V13.01,2013-06-27 16:01:00,
2013-06-27 12:06:00,82.6,66.8,29.97,NE,45,0.0,0.0,59,0.00,,---,0.00,VWS V13.01,2013-06-27 16:06:00,
2013-06-27 12:11:00,81.7,66.9,29.97,NE,45,0.0,0.0,61,0.00,,---,0.00,VWS V13.01,2013-06-27 16:11:00,
2013-06-27 12:16:00,81.0,65.8,29.97,NE,45,0.0,5.4,60,0.00,,---,0.00,VWS V13.01,2013-06-27 16:16:00,
2013-06-27 12:21:00,80.2,65.6,29.97,East,90,0.0,5.4,61,0.00,,---,0.00,VWS V13.01,2013-06-27 16:21:00,
2013-06-27 12:26:00,79.7,65.1,29.97,ENE,68,0.0,6.9,61,0.00,,---,0.00,VWS V13.01,2013-06-27 16:26:00,
2013-06-27 12:31:00,79.5,65.8,29.97,ENE,68,0.0,6.9,63,0.00,,---,0.00,VWS V13.01,2013-06-27 16:31:00,
2013-06-27 12:36:00,79.2,65.5,29.96,NE,45,0.0,6.9,63,0.00,,---,0.00,VWS V13.01,2013-06-27 16:36:00,
2013-06-27 12:41:00,79.3,65.2,29.96,East,90,0.0,6.9,62,0.00,,---,0.00,VWS V13.01,2013-06-27 16:41:00,
2013-06-27 12:46:00,79.7,64.6,29.96,NE,45,0.0,6.9,60,0.00,,---,0.00,VWS V13.01,2013-06-27 16:46:00,
2013-06-27 12:51:00,80.8,66.1,29.95,ENE,68,0.0,6.9,61,0.00,,---,0.00,VWS V13.01,2013-06-27 16:51:00,
2013-06-27 12:56:00,81.9,67.1,29.95,East,90,0.0,6.9,61,0.00,,---,0.00,VWS V13.01,2013-06-27 16:56:00,
2013-06-27 13:01:00,83.8,69.0,29.95,ESE,112,0.0,0.0,61,0.00,,---,0.00,VWS V13.01,2013-06-27 17:01:00,
2013-06-27 13:06:00,84.9,69.5,29.94,East,90,0.0,0.0,60,0.00,,---,0.00,VWS V13.01,2013-06-27 17:06:00,
2013-06-27 13:11:00,85.6,69.7,29.94,SE,135,0.0,0.0,59,0.00,,---,0.00,VWS V13.01,2013-06-27 17:11:00,
2013-06-27 13:16:00,86.5,70.5,29.93,ESE,112,0.0,0.0,59,0.00,,---,0.00,VWS V13.01,2013-06-27 17:16:00,
2013-06-27 13:21:00,86.9,69.8,29.93,SE,135,0.0,1.6,57,0.00,,---,0.00,VWS V13.01,2013-06-27 17:21:00,
2013-06-27 13:26:00,87.3,70.2,29.93,SE,135,0.0,1.6,57,0.00,,---,0.00,VWS V13.01,2013-06-27 17:26:00,
2013-06-27 13:31:00,87.8,70.2,29.93,SE,135,0.0,1.6,56,0.00,,---,0.00,VWS V13.01,2013-06-27 17:31:00,
2013-06-27 13:36:00,88.0,69.8,29.93,ESE,112,0.0,1.6,55,0.00,,---,0.00,VWS V13.01,2013-06-27 17:36:00,
2013-06-27 13:41:00,88.2,70.0,29.93,SE,135,0.0,1.6,55,0.00,,---,0.00,VWS V13.01,2013-06-27 17:41:00,
2013-06-27 13:46:00,88.5,69.8,29.93,SE,135,0.0,1.6,54,0.00,,---,0.00,VWS V13.01,2013-06-27 17:46:00,
2013-06-27 13:51:00,88.5,69.2,29.93,ESE,112,0.0,1.6,53,0.00,,---,0.00,VWS V13.01,2013-06-27 17:51:00,
2013-06-27 13:56:00,88.9,69.6,29.93,ESE,112,0.0,2.0,53,0.00,,---,0.00,VWS V13.01,2013-06-27 17:56:00,
2013-06-27 14:01:00,88.9,69.6,29.93,ENE,68,0.0,0.0,53,0.00,,---,0.00,VWS V13.01,2013-06-27 18:01:00,
2013-06-27 14:06:00,89.1,69.7,29.93,SE,135,0.0,2.9,53,0.00,,---,0.00,VWS V13.01,2013-06-27 18:06:00,
2013-06-27 14:11:00,89.1,69.7,29.93,SE,135,2.2,4.7,53,0.00,,---,0.00,VWS V13.01,2013-06-27 18:11:00,
2013-06-27 14:16:00,89.2,69.9,29.93,SSE,158,0.0,4.7,53,0.00,,---,0.00,VWS V13.01,2013-06-27 18:16:00,
2013-06-27 14:21:00,90.0,70.0,29.92,SE,135,0.0,4.7,52,0.00,,---,0.00,VWS V13.01,2013-06-27 18:21:00,
2013-06-27 14:26:00,90.5,70.5,29.92,SE,135,0.0,4.7,52,0.00,,---,0.00,VWS V13.01,2013-06-27 18:26:00,
2013-06-27 14:31:00,90.5,69.9,29.93,SSE,158,0.0,4.7,51,0.00,,---,0.00,VWS V13.01,2013-06-27 18:31:00,
2013-06-27 14:36:00,90.5,68.8,29.93,SE,135,0.0,4.7,49,0.00,,---,0.00,VWS V13.01,2013-06-27 18:36:00,
2013-06-27 14:41:00,90.1,68.4,29.93,SE,135,0.0,4.7,49,0.00,,---,0.00,VWS V13.01,2013-06-27 18:41:00,
2013-06-27 14:46:00,90.3,69.2,29.93,ESE,112,0.0,4.7,50,0.00,,---,0.00,VWS V13.01,2013-06-27 18:46:00,
2013-06-27 14:51:00,90.3,69.8,29.92,SE,135,2.2,4.7,51,0.00,,---,0.00,VWS V13.01,2013-06-27 18:51:00,
2013-06-27 14:56:00,90.3,69.2,29.92,ESE,112,0.0,4.7,50,0.00,,---,0.00,VWS V13.01,2013-06-27 18:56:00,
2013-06-27 15:01:00,90.0,68.2,29.92,ESE,112,0.0,0.0,49,0.00,,---,0.00,VWS V13.01,2013-06-27 19:01:00,
2013-06-27 15:06:00,90.0,68.2,29.93,SE,135,0.0,0.0,49,0.00,,---,0.00,VWS V13.01,2013-06-27 19:06:00,
2013-06-27 15:11:00,90.0,68.8,29.93,SE,135,0.0,2.9,50,0.00,,---,0.00,VWS V13.01,2013-06-27 19:11:00,
2013-06-27 15:16:00,90.0,68.8,29.93,SSE,158,2.9,2.9,50,0.00,,---,0.00,VWS V13.01,2013-06-27 19:16:00,
2013-06-27 15:21:00,90.0,68.8,29.93,ESE,112,0.0,2.9,50,0.00,,---,0.00,VWS V13.01,2013-06-27 19:21:00,
2013-06-27 15:26:00,90.3,69.8,29.93,South,180,1.8,2.9,51,0.00,,---,0.00,VWS V13.01,2013-06-27 19:26:00,
2013-06-27 15:31:00,90.3,69.8,29.93,South,180,0.0,2.9,51,0.00,,---,0.00,VWS V13.01,2013-06-27 19:31:00,
2013-06-27 15:36:00,90.1,69.0,29.92,ESE,112,0.0,5.1,50,0.00,,---,0.00,VWS V13.01,2013-06-27 19:36:00,
2013-06-27 15:41:00,90.1,69.6,29.91,SE,135,0.0,5.1,51,0.00,,---,0.00,VWS V13.01,2013-06-27 19:41:00,
2013-06-27 15:46:00,90.1,69.6,29.91,South,180,0.0,5.1,51,0.00,,---,0.00,VWS V13.01,2013-06-27 19:46:00,
2013-06-27 15:51:00,90.3,69.2,29.91,ESE,112,0.0,5.1,50,0.00,,---,0.00,VWS V13.01,2013-06-27 19:51:00,
2013-06-27 15:56:00,90.3,69.2,29.91,South,180,0.0,5.1,50,0.00,,---,0.00,VWS V13.01,2013-06-27 19:56:00,
2013-06-27 16:01:00,90.5,69.9,29.90,SSE,158,4.3,4.3,51,0.00,,---,0.00,VWS V13.01,2013-06-27 20:01:00,
2013-06-27 16:06:00,90.7,70.1,29.90,SE,135,0.0,5.4,51,0.00,,---,0.00,VWS V13.01,2013-06-27 20:06:00,
2013-06-27 16:11:00,91.0,70.4,29.90,ESE,112,0.0,5.4,51,0.00,,---,0.00,VWS V13.01,2013-06-27 20:11:00,
2013-06-27 16:16:00,91.0,69.2,29.90,East,90,0.0,5.4,49,0.00,,---,0.00,VWS V13.01,2013-06-27 20:16:00,
2013-06-27 16:21:00,91.0,68.6,29.90,ESE,112,0.0,5.4,48,0.00,,---,0.00,VWS V13.01,2013-06-27 20:21:00,
2013-06-27 16:26:00,91.0,68.6,29.90,SE,135,0.0,5.4,48,0.00,,---,0.00,VWS V13.01,2013-06-27 20:26:00,
2013-06-27 16:31:00,91.6,69.1,29.90,SSE,158,0.0,5.4,48,0.00,,---,0.00,VWS V13.01,2013-06-27 20:31:00,
2013-06-27 16:36:00,91.8,69.3,29.90,SSE,158,0.0,5.4,48,0.00,,---,0.00,VWS V13.01,2013-06-27 20:36:00,
2013-06-27 16:41:00,92.3,69.8,29.89,SSE,158,0.0,5.4,48,0.00,,---,0.00,VWS V13.01,2013-06-27 20:41:00,
2013-06-27 16:46:00,91.9,68.8,29.89,ENE,68,0.0,5.4,47,0.00,,---,0.00,VWS V13.01,2013-06-27 20:46:00,
2013-06-27 16:52:00,91.4,69.0,29.89,East,90,0.0,5.4,48,0.00,,---,0.00,VWS V13.01,2013-06-27 20:52:00,
2013-06-27 16:57:00,90.5,68.8,29.88,SE,135,4.7,5.4,49,0.00,,---,0.00,VWS V13.01,2013-06-27 20:57:00,
2013-06-27 17:02:00,89.8,68.7,29.88,South,180,0.0,4.7,50,0.00,,---,0.00,VWS V13.01,2013-06-27 21:02:00,
2013-06-27 17:08:00,89.2,68.2,29.89,SSE,158,0.0,5.8,50,0.00,,---,0.00,VWS V13.01,2013-06-27 21:08:00,
2013-06-27 17:13:00,89.1,68.6,29.89,SE,135,3.8,5.8,51,0.00,,---,0.00,VWS V13.01,2013-06-27 21:13:00,
2013-06-27 17:18:00,88.7,68.3,29.89,East,90,0.0,5.8,51,0.00,,---,0.00,VWS V13.01,2013-06-27 21:18:00,
2013-06-27 17:24:00,88.7,68.8,29.90,ESE,112,0.0,5.8,52,0.00,,---,0.00,VWS V13.01,2013-06-27 21:24:00,
2013-06-27 17:29:00,88.5,69.2,29.90,SE,135,1.6,5.8,53,0.00,,---,0.00,VWS V13.01,2013-06-27 21:29:00,
2013-06-27 17:34:00,88.3,69.1,29.90,SE,135,0.0,5.8,53,0.00,,---,0.00,VWS V13.01,2013-06-27 21:34:00,
2013-06-27 17:39:00,88.2,69.4,29.90,East,90,2.0,5.8,54,0.00,,---,0.00,VWS V13.01,2013-06-27 21:39:00,
2013-06-27 17:44:00,88.0,69.3,29.89,East,90,0.0,5.8,54,0.00,,---,0.00,VWS V13.01,2013-06-27 21:44:00,
2013-06-27 17:49:00,88.0,69.3,29.90,ESE,112,0.0,5.8,54,0.00,,---,0.00,VWS V13.01,2013-06-27 21:49:00,
2013-06-27 17:55:00,88.0,69.3,29.89,SE,135,2.5,5.8,54,0.00,,---,0.00,VWS V13.01,2013-06-27 21:55:00,
2013-06-27 18:00:00,87.8,69.6,29.89,SSE,158,0.0,2.0,55,0.00,,---,0.00,VWS V13.01,2013-06-27 22:00:00,
2013-06-27 18:05:00,87.4,69.3,29.90,SSE,158,0.0,4.7,55,0.00,,---,0.00,VWS V13.01,2013-06-27 22:05:00,
2013-06-27 18:11:00,87.3,69.1,29.90,SE,135,0.0,4.7,55,0.00,,---,0.00,VWS V13.01,2013-06-27 22:11:00,
2013-06-27 18:16:00,87.1,69.0,29.90,ESE,112,0.0,4.7,55,0.00,,---,0.00,VWS V13.01,2013-06-27 22:16:00,
2013-06-27 18:21:00,86.9,68.8,29.90,SSE,158,0.0,4.7,55,0.00,,---,0.00,VWS V13.01,2013-06-27 22:21:00,
2013-06-27 18:26:00,86.9,68.8,29.89,SE,135,0.0,4.7,55,0.00,,---,0.00,VWS V13.01,2013-06-27 22:26:00,
2013-06-27 18:31:00,86.7,68.6,29.89,SE,135,0.0,4.7,55,0.00,,---,0.00,VWS V13.01,2013-06-27 22:31:00,
2013-06-27 18:36:00,86.7,68.6,29.89,SE,135,0.0,4.7,55,0.00,,---,0.00,VWS V13.01,2013-06-27 22:36:00,
2013-06-27 18:41:00,86.7,68.6,29.89,SE,135,0.0,4.7,55,0.00,,---,0.00,VWS V13.01,2013-06-27 22:41:00,
2013-06-27 18:46:00,86.7,68.6,29.89,SE,135,0.0,4.7,55,0.00,,---,0.00,VWS V13.01,2013-06-27 22:46:00,
2013-06-27 18:51:00,86.5,68.5,29.89,SE,135,4.3,4.7,55,0.00,,---,0.00,VWS V13.01,2013-06-27 22:51:00,
2013-06-27 18:57:00,86.4,68.3,29.89,ESE,112,1.6,4.7,55,0.00,,---,0.00,VWS V13.01,2013-06-27 22:57:00,
2013-06-27 19:02:00,86.4,68.3,29.88,SE,135,0.0,0.9,55,0.00,,---,0.00,VWS V13.01,2013-06-27 23:02:00,
2013-06-27 19:07:00,86.2,68.1,29.88,SE,135,0.0,2.7,55,0.00,,---,0.00,VWS V13.01,2013-06-27 23:07:00,
2013-06-27 19:13:00,86.2,68.1,29.88,SE,135,0.0,2.7,55,0.00,,---,0.00,VWS V13.01,2013-06-27 23:13:00,
2013-06-27 19:18:00,86.2,68.1,29.88,South,180,0.0,2.7,55,0.00,,---,0.00,VWS V13.01,2013-06-27 23:18:00,
2013-06-27 19:24:00,85.8,67.8,29.87,SE,135,0.0,3.6,55,0.00,,---,0.00,VWS V13.01,2013-06-27 23:24:00,
2013-06-27 19:29:00,85.6,67.6,29.88,South,180,0.0,3.6,55,0.00,,---,0.00,VWS V13.01,2013-06-27 23:29:00,
2013-06-27 19:34:00,85.6,67.6,29.87,SSW,202,0.0,3.6,55,0.00,,---,0.00,VWS V13.01,2013-06-27 23:34:00,
2013-06-27 19:39:00,85.3,67.8,29.87,SE,135,0.0,4.3,56,0.00,,---,0.00,VWS V13.01,2013-06-27 23:39:00,
2013-06-27 19:44:00,85.1,67.7,29.87,SE,135,1.3,4.3,56,0.00,,---,0.00,VWS V13.01,2013-06-27 23:44:00,
2013-06-27 19:49:00,84.9,67.5,29.88,SE,135,1.1,4.3,56,0.00,,---,0.00,VWS V13.01,2013-06-27 23:49:00,
2013-06-27 19:54:00,84.9,67.5,29.88,South,180,0.0,4.3,56,0.00,,---,0.00,VWS V13.01,2013-06-27 23:54:00,
2013-06-27 20:00:00,84.7,67.3,29.88,SSE,158,0.0,4.3,56,0.00,,---,0.00,VWS V13.01,2013-06-28 00:00:00,
2013-06-27 20:05:00,84.6,67.2,29.88,ESE,112,0.0,1.3,56,0.00,,---,0.00,VWS V13.01,2013-06-28 00:05:00,
2013-06-27 20:10:00,84.6,68.2,29.88,ESE,112,0.0,1.3,58,0.00,,---,0.00,VWS V13.01,2013-06-28 00:10:00,
2013-06-27 20:15:00,84.6,68.2,29.89,ESE,112,0.0,1.3,58,0.00,,---,0.00,VWS V13.01,2013-06-28 00:15:00,
2013-06-27 20:20:00,84.4,68.0,29.88,ESE,112,0.0,1.3,58,0.00,,---,0.00,VWS V13.01,2013-06-28 00:20:00,
2013-06-27 20:26:00,84.2,67.8,29.89,SSE,158,0.0,1.6,58,0.00,,---,0.00,VWS V13.01,2013-06-28 00:26:00,
2013-06-27 20:31:00,84.2,67.8,29.89,South,180,0.0,1.6,58,0.00,,---,0.00,VWS V13.01,2013-06-28 00:31:00,
2013-06-27 20:36:00,84.2,67.8,29.89,South,180,0.0,1.6,58,0.00,,---,0.00,VWS V13.01,2013-06-28 00:36:00,
2013-06-27 20:41:00,84.0,67.7,29.89,South,180,0.0,1.6,58,0.00,,---,0.00,VWS V13.01,2013-06-28 00:41:00,
2013-06-27 20:46:00,83.8,67.5,29.89,ESE,112,0.0,1.6,58,0.00,,---,0.00,VWS V13.01,2013-06-28 00:46:00,
2013-06-27 20:52:00,83.8,67.5,29.89,ESE,112,0.0,1.6,58,0.00,,---,0.00,VWS V13.01,2013-06-28 00:52:00,
2013-06-27 20:57:00,83.7,67.3,29.88,ESE,112,0.0,1.6,58,0.00,,---,0.00,VWS V13.01,2013-06-28 00:57:00,
2013-06-27 21:02:00,83.5,67.2,29.88,ESE,112,0.0,0.0,58,0.00,,---,0.00,VWS V13.01,2013-06-28 01:02:00,
2013-06-27 21:07:00,83.5,67.2,29.88,ESE,112,0.0,0.0,58,0.00,,---,0.00,VWS V13.01,2013-06-28 01:07:00,
2013-06-27 21:13:00,83.3,67.0,29.88,ESE,112,0.0,0.7,58,0.00,,---,0.00,VWS V13.01,2013-06-28 01:13:00,
2013-06-27 21:18:00,83.1,66.8,29.88,SSE,158,0.0,0.7,58,0.00,,---,0.00,VWS V13.01,2013-06-28 01:18:00,
2013-06-27 21:23:00,83.1,66.8,29.88,SSE,158,0.0,0.7,58,0.00,,---,0.00,VWS V13.01,2013-06-28 01:23:00,
2013-06-27 21:28:00,82.9,82.9,29.89,SSE,158,0.0,0.7,100,0.00,,---,0.00,VWS V13.01,2013-06-28 01:28:00,
2013-06-27 21:34:00,82.8,82.8,29.89,SSE,158,0.0,0.7,100,0.00,,---,0.00,VWS V13.01,2013-06-28 01:34:00,
2013-06-27 21:40:00,82.8,82.8,29.89,SSE,158,0.0,0.7,100,0.00,,---,0.00,VWS V13.01,2013-06-28 01:40:00,
2013-06-27 21:44:00,82.8,82.8,29.89,SSE,158,0.0,0.7,100,0.00,,---,0.00,VWS V13.01,2013-06-28 01:44:00,
2013-06-27 21:50:00,82.6,70.1,29.90,SSE,158,0.0,0.7,66,0.00,,---,0.00,VWS V13.01,2013-06-28 01:50:00,
2013-06-27 21:55:00,82.6,70.1,29.90,SSE,158,0.0,0.7,66,0.00,,---,0.00,VWS V13.01,2013-06-28 01:55:00,
2013-06-27 22:00:00,82.6,70.1,29.90,SSE,158,0.0,0.7,66,0.00,,---,0.00,VWS V13.01,2013-06-28 02:00:00,
2013-06-27 22:05:00,82.4,70.3,29.90,SSE,158,0.0,0.0,67,0.00,,---,0.00,VWS V13.01,2013-06-28 02:05:00,
2013-06-27 22:11:00,82.2,70.2,29.90,SSE,158,0.0,0.0,67,0.00,,---,0.00,VWS V13.01,2013-06-28 02:11:00,
2013-06-27 22:16:00,82.2,70.2,29.90,SSE,158,0.0,0.0,67,0.00,,---,0.00,VWS V13.01,2013-06-28 02:16:00,
2013-06-27 22:21:00,82.0,70.0,29.90,SSE,158,0.0,0.0,67,0.00,,---,0.00,VWS V13.01,2013-06-28 02:21:00,
2013-06-27 22:26:00,82.0,70.0,29.90,SSE,158,0.0,0.0,67,0.00,,---,0.00,VWS V13.01,2013-06-28 02:26:00,
2013-06-27 22:31:00,81.9,69.8,29.91,SSE,158,0.0,0.0,67,0.00,,---,0.00,VWS V13.01,2013-06-28 02:31:00,
2013-06-27 22:37:00,81.7,69.7,29.91,SSE,158,0.0,0.0,67,0.00,,---,0.00,VWS V13.01,2013-06-28 02:37:00,
2013-06-27 22:42:00,81.7,69.7,29.91,SSE,158,0.0,0.0,67,0.00,,---,0.00,VWS V13.01,2013-06-28 02:42:00,
2013-06-27 22:47:00,81.7,69.7,29.91,SSE,158,0.0,0.0,67,0.00,,---,0.00,VWS V13.01,2013-06-28 02:47:00,
2013-06-27 22:52:00,81.7,69.7,29.91,SSE,158,0.0,0.0,67,0.00,,---,0.00,VWS V13.01,2013-06-28 02:52:00,
2013-06-27 22:57:00,81.7,70.5,29.90,SSE,158,0.0,0.0,69,0.00,,---,0.00,VWS V13.01,2013-06-28 02:57:00,
2013-06-27 23:02:00,81.7,70.5,29.90,SSE,158,0.0,0.0,69,0.00,,---,0.00,VWS V13.01,2013-06-28 03:02:00,
2013-06-27 23:07:00,81.5,70.4,29.90,SSE,158,0.0,0.0,69,0.00,,---,0.00,VWS V13.01,2013-06-28 03:07:00,
2013-06-27 23:12:00,81.5,70.4,29.91,SSE,158,0.0,0.0,69,0.00,,---,0.00,VWS V13.01,2013-06-28 03:12:00,
2013-06-27 23:18:00,81.5,70.4,29.91,SSE,158,0.0,0.0,69,0.00,,---,0.00,VWS V13.01,2013-06-28 03:18:00,
2013-06-27 23:23:00,81.3,70.2,29.91,SSE,158,0.0,0.0,69,0.00,,---,0.00,VWS V13.01,2013-06-28 03:23:00,
2013-06-27 23:29:00,81.5,70.4,29.91,SSE,158,0.0,0.0,69,0.00,,---,0.00,VWS V13.01,2013-06-28 03:29:00,
2013-06-27 23:34:00,81.3,70.2,29.91,SSE,158,0.0,0.0,69,0.00,,---,0.00,VWS V13.01,2013-06-28 03:34:00,
2013-06-27 23:39:00,81.3,70.6,29.91,SSE,158,0.0,0.0,70,0.00,,---,0.00,VWS V13.01,2013-06-28 03:39:00,
2013-06-27 23:44:00,81.3,70.6,29.91,SSE,158,0.0,0.0,70,0.00,,---,0.00,VWS V13.01,2013-06-28 03:44:00,
2013-06-27 23:49:00,81.1,70.4,29.91,SSE,158,0.0,0.0,70,0.00,,---,0.00,VWS V13.01,2013-06-28 03:49:00,
2013-06-27 23:55:00,81.1,70.8,29.91,SSE,158,0.0,0.0,71,0.00,,---,0.00,VWS V13.01,2013-06-28 03:55:00,